星链-31107 (STARLINK-31107 )

导读 | 星芒AI

STARLINK-31107 是 SpaceX Starlink 卫星互联网项目中的一颗低轨卫星,属于第 6 批次发射的星链卫星群。该卫星于 2023 年发射,运行在约 550 公里的轨道高度,旨在为全球用户提供高速、低延迟的宽带互联网服务。作为 Starlink 计划的一部分,它与其他数千颗卫星协同工作,提升网络覆盖与连接稳定性,尤其服务于偏远和网络基础设施薄弱的地区。

基本信息
目录编号:
58684
目录名称:
STARLINK-31107
国际标识:
2023-211T
轨道中心:
EARTH
卫星名称:
星链-31107
卫星全名:
星链-31107 (STARLINK-31107 )
卫星状态:
在轨 (已飞行672 天)
发射日期:
2023-12-29 UTC
国别 :
美国 (US)
星等 :
--
轨道信息
数据来源 国际轨道数据 AOE轨道数据
星历时间 2025-10-30T20:41:22+0800
1天前
查看轨道信息
2025-10-30T03:00:00+0800
2天前
查看轨道信息
半长轴 6861.209km 6861.208km
偏心率 0.0001091 0.0001047
轨道倾角 42.998° 43.005°
近地点辐角 258.210° 273.899°
升交点赤经 100.748° 104.910°
平近点角 101.863° 348.079°
近地点 482.325km 482.354km
远地点 483.823km 483.792km
周期 94.267分钟 94.267分钟
每日圈数 15.275724 15.275729
详细信息
固有亮度:
5
最大亮度:
0.3
卫星平台:
Starlink v2.0 mini
覆盖范围:
全球
运营商:
太空探索技术公司
运营商所在国:
美国
制造商(研发单位):
太空探索技术公司
制造商所在国:
美国
使用方式:
暂无
卫星简介
星链(Starlink)计划是由太空探索技术公司(SpaceX)提出的一个巨型低轨卫星互联网星座项目,计划在2019年至2024年间在太空搭建由约1.2万颗卫星组成的“星链”网络,其中1584颗将部署在地球上空550千米处的近地轨道,并从2020年开始工作。该卫星仍在工作。
2D轨道图
3D轨道图
轨道高度分析图
轨道倾角分析图
轨道综合分析图
查看轨道综合分析图